Location: Amanico Ergina Village
(37.7824°N, 122.4366°W)
Time: 21:26:30
(UTC+00:00)

PSLV R/B - Pass Details

Date: 29 October 2020
Orbit: 567 x 599 km, 98.2° (Epoch: 24 November)

Event Time Altitude Azimuth Distance (km) Brightness Sun altitude
Rises 13:55:14 0° 180° (S) 2,820 7.6 -8.0°
Reaches altitude 10° 13:57:28 10° 187° (S) 1,926 6.7 -7.6°
Maximum altitude 14:01:28 45° 260° (W) 820 4.3 -6.8°
Drops below altitude 10° 14:05:32 10° 334° (NNW) 1,945 6.3 -6.0°
Sets 14:07:48 0° 341° (NNW) 2,851 7.1 -5.6°
